Theta_e
313 313 314 314 314 313 313 313 312 311 310 308 305 307 303 302 301 312 317 316 307 298 293 300 297 292 295 299 297 297 296 295 296 295 296 295 297 294 294 293 292 293 292 292 291 291 288 290 288 291 293 293 295 297 298 298 297 296 292 295 294 303 289 285 287 290 293 295 297 299 300 299 295 296 297 294 291 293 292 291 293 291 291 288 289 290 291
313 314 314 314 314 313 313 313 312 312 310 307 306 303 302 303 303 308 315 310 305 297 290 290 292 294 296 296 295 297 295 295 294 294 296 295 294 293 293 295 296 292 294 292 290 292 286 292 291 289 294 291 298 297 297 298 294 295 294 292 295 287 289 286 282 282 286 287 291 295 297 296 292 291 294 294 295 295 295 296 295 290 293 294 289 286 292
314 314 314 314 314 313 312 313 312 312 312 311 304 302 303 302 306 307 309 309 303 294 296 293 291 293 293 293 292 293 294 295 295 295 294 297 295 294 293 295 295 294 295 293 293 294 290 288 294 293 294 294 298 297 297 299 295 299 304 304 299 289 290 284 279 277 276 277 279 283 286 288 291 294 293 294 293 292 291 289 290 284 292 294 291 290 295
314 314 314 314 313 313 313 313 312 312 312 310 306 304 303 300 293 298 298 302 299 297 301 296 293 292 293 292 293 294 292 295 295 296 296 297 298 297 297 297 297 294 294 292 292 292 295 291 291 291 292 294 297 297 297 298 297 302 305 304 298 290 292 287 284 281 281 283 287 292 293 290 286 289 291 291 293 294 292 293 290 285 289 290 292 294 294
314 314 314 314 313 313 313 312 312 312 312 311 304 305 302 303 293 294 290 297 296 294 295 296 296 292 296 287 293 291 292 294 295 298 293 298 297 297 297 296 293 292 293 291 291 293 292 294 292 291 292 295 296 298 298 297 302 305 302 303 296 290 285 288 288 287 287 289 289 291 292 288 289 289 289 291 291 292 291 288 286 293 289 284 294 296 293
314 314 315 314 314 313 313 312 312 312 311 311 308 301 302 293 298 300 302 291 289 289 292 297 296 298 296 291 296 291 291 291 289 296 298 299 298 294 296 296 296 295 293 293 288 291 290 291 289 292 293 292 295 294 298 295 302 301 296 300 294 289 285 289 290 288 289 289 290 291 291 290 290 289 290 290 291 291 289 289 291 292 289 286 293 295 294
314 314 315 315 314 314 313 313 312 311 309 310 307 298 302 301 301 301 305 292 295 296 298 299 295 295 298 294 294 291 290 290 293 293 295 297 295 297 289 294 295 294 296 293 289 290 284 286 291 290 290 291 291 289 292 295 296 295 294 294 296 289 284 290 290 288 289 289 290 291 290 290 290 289 290 291 291 291 291 291 292 292 291 294 295 296 297
314 314 315 315 315 314 314 313 313 311 309 311 307 304 299 298 297 297 303 302 295 297 296 296 294 291 298 290 292 294 291 290 292 295 294 292 294 298 294 293 294 295 294 293 290 293 293 292 288 294 292 289 292 291 291 288 293 295 293 295 294 289 287 294 290 286 287 289 292 291 291 290 289 290 291 291 292 292 292 292 292 295 293 297 295 295 297
314 315 315 315 315 314 314 313 312 311 310 308 305 304 305 305 306 304 298 295 297 298 295 293 292 289 291 289 294 296 293 292 294 293 298 294 293 296 292 296 295 296 295 294 294 297 296 295 294 294 294 288 293 289 291 294 290 293 292 293 295 292 286 292 289 283 283 288 289 290 291 291 289 288 290 290 290 289 291 290 293 291 290 291 293 294 297
314 315 315 315 314 314 314 314 313 311 310 307 303 301 306 306 308 309 301 293 300 292 296 293 290 288 293 297 296 295 293 294 294 290 297 297 298 297 296 296 292 293 293 293 294 297 297 296 296 295 294 295 294 294 294 294 292 290 291 294 291 290 287 285 285 282 281 288 289 289 289 287 284 285 288 290 291 292 293 294 295 295 297 293 290 298 304
314 314 315 315 315 315 315 315 314 311 309 306 306 303 305 303 301 303 299 291 292 292 291 290 291 295 298 297 295 297 296 296 297 289 290 296 297 299 298 297 291 289 291 295 301 300 300 298 298 298 297 296 295 295 295 297 295 296 293 292 291 292 289 286 288 280 281 287 288 289 284 277 279 290 294 293 295 297 296 300 303 304 306 301 301 306 309
313 314 315 315 315 315 316 315 315 312 309 307 307 305 308 307 304 300 296 291 291 294 292 290 292 296 296 297 297 295 295 295 296 299 293 295 295 297 298 297 293 288 297 299 300 300 302 302 301 299 299 298 297 297 299 297 296 299 297 293 290 291 291 285 287 282 280 286 287 283 276 279 290 294 295 295 298 303 301 302 304 304 305 306 305 304 305
313 314 315 315 315 315 315 315 314 314 312 309 307 305 310 309 304 300 297 293 291 292 289 292 297 298 298 298 297 297 298 299 300 300 298 298 298 299 299 296 295 298 302 300 301 299 295 292 292 294 294 296 297 298 297 296 295 297 296 297 293 288 288 289 287 285 285 281 281 273 276 287 293 294 295 303 304 302 302 300 302 303 304 305 304 304 305
313 314 315 315 315 315 316 316 314 314 313 310 307 306 310 309 303 299 297 293 294 297 295 293 295 296 297 297 297 297 298 297 298 299 297 300 298 298 301 302 303 303 302 301 299 294 288 288 285 286 287 289 288 288 294 295 297 294 295 295 297 293 290 289 283 287 278 280 279 281 288 288 289 290 298 297 293 294 295 291 296 302 304 304 304 304 304
313 314 314 315 314 315 316 315 315 314 314 310 307 308 309 308 307 303 303 296 293 296 293 289 294 298 299 298 299 293 293 294 295 294 301 304 301 304 303 304 304 303 302 298 292 293 289 285 281 279 282 280 276 279 291 289 293 296 295 296 296 294 288 288 285 283 285 281 278 278 278 275 283 293 300 302 301 300 301 296 293 304 303 306 305 303 303
312 313 314 314 314 315 315 315 315 315 314 311 308 306 310 311 310 307 302 298 292 287 293 298 300 298 295 296 299 295 293 291 293 293 293 296 300 302 304 304 305 304 302 300 295 291 288 282 280 277 275 280 286 283 280 288 288 294 295 296 295 296 294 290 287 285 284 282 277 275 272 279 289 293 298 300 300 301 301 295 291 302 301 304 304 303 304
312 313 314 314 314 315 315 315 315 315 314 312 305 306 306 311 309 306 302 299 297 292 299 304 303 301 293 292 295 294 294 292 294 289 289 291 297 301 303 304 304 303 301 295 293 289 284 281 282 278 278 286 280 278 283 280 283 285 291 293 291 289 288 285 284 284 286 284 280 278 282 280 291 296 297 299 301 303 295 283 285 299 301 303 304 304 303
312 313 314 314 314 314 315 315 315 315 314 312 308 304 307 312 312 308 304 300 297 295 299 307 303 295 292 293 293 298 300 298 297 296 292 296 298 298 301 303 297 303 304 292 292 285 283 280 279 277 275 287 287 282 274 280 280 282 283 285 283 284 286 285 281 283 287 286 283 284 284 293 296 297 298 300 303 299 285 281 293 300 301 303 305 305 305
312 312 313 314 314 314 314 315 315 315 315 312 309 308 308 311 313 309 304 300 297 294 303 308 309 305 306 307 301 302 301 299 295 293 290 291 294 301 303 302 303 293 298 291 289 286 280 282 286 280 277 280 283 279 282 278 278 286 287 282 282 284 284 287 285 283 282 285 283 283 285 292 296 299 299 302 297 286 283 295 301 301 302 304 305 305 305
312 312 312 313 314 314 314 314 314 315 314 313 309 304 308 312 313 310 303 298 299 296 302 304 308 304 307 304 298 295 296 298 297 293 291 288 297 302 292 289 295 299 294 294 288 289 282 280 282 285 282 281 283 286 281 279 287 285 284 288 284 285 282 279 279 284 285 285 283 282 279 292 299 299 297 300 290 291 298 299 302 304 303 303 304 305 305
312 312 312 313 313 314 314 314 314 314 314 314 310 305 306 312 314 314 309 304 298 294 297 307 310 306 307 306 306 306 303 297 298 295 295 295 298 294 284 286 289 292 289 290 283 285 286 281 287 282 285 282 285 285 279 279 282 291 290 287 286 287 282 283 286 290 282 283 282 283 290 292 300 297 289 295 298 300 301 301 300 303 303 302 302 303 305
311 312 312 312 313 313 314 314 314 314 314 314 311 306 303 310 316 316 315 307 301 297 300 306 309 308 309 311 310 310 309 306 306 303 298 296 300 296 295 297 296 295 296 295 291 290 291 289 291 287 283 284 290 282 283 279 275 282 294 291 281 291 286 287 281 289 287 283 286 293 297 299 299 301 299 300 302 304 304 302 300 299 300 302 301 301 303
311 311 312 312 312 313 313 314 314 314 314 314 311 305 303 308 310 314 311 303 303 306 309 308 309 310 313 314 316 315 314 314 309 306 303 298 297 298 296 296 295 302 301 297 290 288 288 288 285 288 286 286 283 281 285 284 279 283 281 290 287 293 294 293 290 288 294 295 295 297 297 296 297 298 300 301 302 302 301 299 298 299 301 301 300 301 302
311 311 312 312 312 312 313 313 313 314 314 313 312 303 302 305 309 310 308 306 301 299 302 305 304 302 306 308 312 314 317 314 311 309 310 306 295 295 301 302 304 303 299 300 299 293 293 291 290 290 282 288 290 283 279 278 281 283 284 285 289 292 294 292 288 290 286 282 296 295 294 295 296 297 300 299 299 299 300 298 298 299 300 301 302 302 303
311 311 311 312 312 313 313 313 313 313 314 313 311 311 310 307 309 311 307 299 297 297 294 298 300 307 311 314 314 312 312 315 314 312 310 308 304 299 296 303 306 299 298 301 301 299 295 291 292 289 282 290 291 282 287 283 284 289 280 283 285 285 295 290 290 288 286 286 291 293 295 295 296 297 295 295 297 298 299 299 300 300 301 302 302 303 303
311 311 311 312 312 312 312 312 312 313 313 313 312 305 304 305 309 310 310 310 306 303 297 296 301 310 313 310 309 312 315 315 312 312 311 310 309 307 304 307 306 307 305 305 301 299 294 294 292 289 286 289 294 285 284 289 285 289 286 285 288 291 294 284 288 285 288 291 292 293 294 294 296 297 297 298 298 298 298 299 300 300 300 301 303 304 303
311 311 311 311 312 312 312 312 312 312 313 313 311 307 306 307 310 309 308 308 301 295 297 295 300 306 309 307 311 314 315 314 311 311 311 311 310 308 307 304 302 302 304 302 303 299 296 293 292 290 291 290 295 291 291 291 290 288 285 290 295 293 287 290 288 285 284 284 287 292 287 287 292 294 296 297 298 298 298 298 299 299 300 301 301 302 303
310 311 311 311 311 312 312 312 312 312 312 313 311 309 308 307 308 311 313 312 305 296 295 297 298 303 310 307 312 313 313 315 313 309 309 310 310 308 306 304 303 302 301 300 296 296 294 292 292 296 297 297 292 290 294 294 293 289 289 290 294 289 290 289 286 285 284 290 293 293 293 292 294 295 297 298 299 298 297 297 298 300 301 301 300 300 301
310 311 311 311 311 311 311 311 311 312 312 311 310 308 308 309 311 312 313 314 311 307 304 304 306 303 297 303 312 310 313 313 311 310 308 308 308 307 305 305 303 303 303 302 299 297 294 294 298 296 293 297 294 290 292 287 285 283 289 293 294 293 295 293 292 292 293 295 295 295 293 291 294 297 298 298 299 298 298 299 300 301 301 301 301 301 300
310 310 310 310 310 311 311 311 311 312 312 310 308 307 304 308 312 311 313 315 313 311 303 300 296 299 307 309 307 310 311 313 312 309 307 305 306 306 305 304 303 306 304 301 300 296 297 296 298 300 301 302 295 294 289 287 285 287 292 294 296 295 296 296 296 293 291 297 298 298 296 296 298 299 300 300 300 300 298 298 299 300 301 302 301 301 302
310 310 310 310 310 310 311 311 311 311 311 308 306 300 298 297 306 317 315 318 317 311 306 304 300 305 302 307 308 307 309 311 310 309 306 306 306 306 307 306 306 307 300 301 300 298 300 295 297 298 301 301 301 294 289 287 284 286 292 294 295 295 296 296 297 297 296 297 299 299 299 299 300 299 299 300 299 299 299 299 300 303 302 303 303 303 302
309 310 310 310 310 310 311 311 311 311 310 306 304 303 303 304 308 311 311 313 319 310 304 299 299 296 297 303 308 312 311 312 312 312 309 310 306 309 308 309 306 309 304 300 302 299 297 298 298 299 297 304 302 293 291 288 287 287 292 294 296 297 297 297 297 299 299 299 298 296 295 297 299 297 295 299 300 301 299 299 299 299 303 302 302 302 303
309 310 310 310 310 310 311 311 312 311 308 309 310 310 310 310 310 310 311 312 313 309 309 302 297 299 296 297 306 309 310 310 307 307 304 310 305 306 305 311 308 305 315 303 297 296 301 300 300 298 300 304 298 297 292 289 290 291 294 297 296 297 297 298 298 299 300 299 299 294 292 294 296 299 300 300 300 300 300 299 300 300 300 300 300 301 302
309 309 310 310 310 311 311 311 312 311 310 307 302 305 308 310 310 310 312 314 312 312 310 302 298 296 296 305 299 304 313 303 301 303 298 307 308 305 302 305 305 300 303 300 302 300 302 302 297 297 299 296 299 295 289 291 293 294 295 296 297 296 297 298 297 298 299 299 300 299 298 299 300 300 300 299 299 300 301 300 300 299 298 299 299 300 301
309 310 310 311 311 311 311 311 308 307 303 305 306 308 311 313 311 312 312 311 305 303 303 303 302 295 295 296 296 299 311 305 300 305 300 303 311 303 305 299 301 297 299 308 300 298 297 298 302 295 293 299 295 289 291 292 293 294 294 295 295 296 296 295 295 298 299 299 299 299 300 300 299 297 297 297 298 299 298 299 300 298 297 297 299 300 300
310 310 310 311 311 311 310 309 307 306 304 304 307 317 319 320 316 313 313 316 312 304 302 302 302 297 298 292 291 299 312 304 305 306 306 305 304 309 305 302 294 300 306 300 295 297 296 303 299 292 299 292 290 293 294 296 295 295 295 295 296 296 295 294 295 297 298 299 299 300 300 300 298 297 297 297 297 297 298 298 298 298 297 297 298 299 300
310 310 311 310 310 308 304 306 310 307 307 313 316 318 321 320 318 317 313 311 314 314 304 302 298 298 298 296 299 303 305 297 304 301 302 299 298 304 302 298 294 301 300 298 298 296 300 307 299 293 292 288 292 299 299 298 297 296 296 296 298 298 297 297 298 297 296 298 299 299 298 298 297 297 296 296 296 297 297 296 297 297 296 297 299 299 300
310 310 308 307 306 305 306 307 309 312 316 317 318 312 308 310 304 307 307 304 309 311 306 304 298 301 303 298 294 306 303 299 303 297 299 303 299 296 302 299 299 301 291 295 298 303 299 298 295 292 293 299 299 300 300 300 299 300 299 298 298 299 298 297 299 297 294 293 294 295 297 296 296 295 295 295 296 296 297 298 298 299 299 299 300 301 301
309 308 308 308 305 303 307 313 316 319 313 314 314 307 303 305 303 302 302 305 307 301 306 302 299 302 301 298 300 307 303 299 298 298 292 301 297 292 298 288 298 298 290 292 295 302 292 291 292 291 289 296 297 299 302 301 301 300 300 300 300 299 299 298 299 297 296 294 294 295 296 295 294 294 295 295 296 297 298 298 299 299 299 300 301 302 301
306 304 305 306 304 309 316 315 318 315 313 306 308 304 301 305 296 292 305 297 297 303 304 297 303 302 303 299 299 299 308 301 295 293 294 298 304 292 298 295 297 295 286 285 291 301 293 285 291 290 287 294 296 301 301 301 300 300 300 300 300 299 300 300 301 301 301 300 299 299 299 298 298 297 296 296 296 295 296 297 299 299 299 300 302 302 301
305 306 309 308 310 311 314 314 312 312 308 303 304 306 303 294 301 303 301 295 295 298 305 302 304 302 305 306 303 298 306 309 306 305 301 296 304 302 296 292 301 292 288 286 297 298 295 291 290 287 288 295 297 300 301 300 300 300 299 299 299 299 300 299 300 301 300 300 300 299 299 299 299 298 298 299 298 297 297 297 298 299 300 300 300 301 302
309 308 307 307 309 310 310 310 309 307 307 308 301 290 293 298 302 299 300 293 296 301 303 304 299 299 300 304 303 304 304 309 307 305 299 294 301 296 293 295 296 289 286 295 300 297 293 285 283 284 294 298 299 301 300 299 301 299 299 299 302 300 300 299 300 300 300 298 298 298 299 299 297 297 298 298 298 297 298 298 299 299 300 300 302 302 303
309 309 307 305 308 307 309 297 305 306 292 292 291 289 294 290 294 295 298 303 309 303 303 309 307 308 308 312 304 306 303 308 301 299 298 293 301 299 293 290 291 286 289 299 295 290 286 282 280 286 294 297 299 299 299 299 300 299 299 300 300 301 301 300 300 299 299 299 298 298 299 298 298 299 300 300 299 299 299 300 300 300 300 300 301 302 303
309 310 307 308 303 307 305 289 306 303 294 291 288 285 290 291 295 299 296 296 301 302 305 300 301 300 298 304 300 301 304 303 304 301 298 299 294 292 290 285 288 296 300 292 288 284 282 285 288 289 293 297 301 300 299 300 299 298 299 299 300 300 299 299 300 299 298 299 300 300 300 299 299 300 300 299 300 299 299 299 301 302 301 301 301 302 303
305 303 299 297 293 298 294 287 299 294 288 291 294 296 296 292 295 295 295 302 303 301 305 304 303 301 301 303 304 303 302 297 304 296 293 296 291 292 289 287 295 296 291 285 286 287 287 287 292 295 297 298 300 301 300 299 299 299 298 298 299 299 298 298 297 297 297 298 298 299 298 299 299 299 300 299 299 300 299 299 300 300 299 300 301 301 302
302 293 291 291 291 289 289 288 288 286 294 300 299 300 298 299 298 299 305 306 303 304 303 304 303 302 301 302 297 296 300 298 294 295 298 295 288 285 293 299 298 289 288 287 282 281 284 289 294 296 299 301 302 303 301 300 300 300 299 298 299 299 297 296 296 296 298 298 298 298 298 298 298 299 299 299 300 299 299 300 301 300 300 300 300 301 302
299 306 298 292 290 290 299 289 290 296 301 302 303 303 302 301 303 304 306 306 305 306 306 305 304 302 299 297 298 298 300 300 294 296 294 287 288 291 298 290 283 286 282 279 282 285 288 292 296 298 300 301 303 302 302 301 301 300 299 298 300 297 297 296 296 298 298 298 298 298 298 299 300 299 299 299 299 299 300 301 301 301 301 300 301 302 302
294 298 299 291 287 290 291 297 304 304 306 303 303 305 306 307 304 304 307 307 307 307 304 303 300 299 298 302 300 294 296 298 294 291 295 293 294 291 285 287 286 289 288 284 286 291 291 293 297 300 301 304 303 301 301 300 300 300 299 299 297 296 296 296 297 298 298 298 298 298 299 300 300 299 299 300 300 300 300 300 301 301 301 301 302 302 302
306 297 291 288 296 299 299 303 302 301 304 304 306 305 305 304 304 305 307 307 307 306 306 302 301 299 294 297 296 293 290 295 288 285 293 290 287 285 286 283 284 280 288 289 289 292 292 296 299 301 303 302 303 303 301 301 301 301 300 298 297 296 296 298 299 300 300 299 299 299 299 301 299 299 299 300 299 299 300 300 300 300 301 301 301 301 301
297 294 301 296 297 298 301 305 302 300 304 304 303 303 303 302 303 306 308 307 307 306 305 303 303 295 293 294 286 288 289 293 293 289 288 285 287 288 286 279 282 283 287 292 293 296 298 299 300 300 301 303 304 304 302 303 303 303 300 298 298 298 299 299 299 299 299 299 299 299 300 299 297 297 297 298 300 301 300 300 300 300 300 301 301 301 301
303 297 295 304 300 298 303 297 297 297 298 300 301 301 303 302 303 304 307 307 306 302 299 295 293 292 286 285 284 282 285 295 291 288 287 286 290 287 284 282 285 289 293 296 297 298 298 299 298 299 301 302 303 303 304 304 303 302 300 299 298 299 300 300 300 300 299 300 301 304 299 298 299 300 300 301 301 300 300 300 301 300 300 300 301 301 300
295 293 297 303 307 306 305 305 304 302 302 303 303 304 305 304 305 307 309 305 301 297 294 297 294 287 284 285 289 292 294 290 287 288 285 289 293 287 286 288 291 294 296 296 297 298 300 300 300 302 302 302 304 304 305 304 302 301 299 299 299 300 300 299 299 299 300 300 299 298 299 301 301 301 302 301 300 299 298 297 299 300 300 300 300 301 301
Wind_Speed
21 21 21 21 22 22 21 22 21 20 21 10 8 4 4 5 3 9 10 10 1 2 4 5 3 4 4 7 10 6 6 4 6 7 8 5 6 4 8 6 3 7 3 5 5 5 4 5 5 5 6 9 9 9 13 10 10 5 5 2 6 6 3 8 10 8 6 1 8 5 11 5 6 9 8 10 10 9 6 5 4 1 6 3 2 4 2
20 20 20 20 22 22 22 22 21 19 16 4 6 2 2 2 3 7 7 8 6 11 7 4 7 5 8 12 8 7 6 7 6 7 8 4 3 6 4 4 7 4 5 4 5 7 2 7 7 5 4 3 7 11 9 11 4 5 3 1 7 2 2 3 4 8 12 6 6 8 6 11 6 5 8 10 9 12 12 3 2 3 2 1 1 3 4
19 19 20 21 22 22 22 23 22 20 17 7 0 2 1 3 3 4 7 8 10 7 1 3 4 5 5 5 5 2 3 4 7 6 5 3 4 2 5 5 3 5 4 7 7 7 5 1 4 3 3 2 3 8 9 9 4 4 6 8 1 4 0 4 3 1 5 6 5 6 10 12 9 3 10 9 12 14 11 6 6 3 4 2 0 1 8
18 19 20 21 22 22 23 23 24 24 20 9 2 2 1 4 3 5 6 6 7 6 2 4 5 5 3 4 2 3 3 2 6 5 7 4 7 7 3 8 5 7 6 6 7 6 5 5 1 3 2 1 2 4 7 7 4 6 10 10 4 1 1 3 3 4 6 4 1 4 8 9 9 12 9 10 10 10 6 3 1 3 5 6 2 2 9
18 19 19 21 21 22 23 24 25 27 24 11 4 1 2 1 3 3 5 6 7 5 6 6 7 4 1 4 3 6 6 2 4 7 2 4 3 4 7 6 6 5 6 4 6 7 6 5 4 3 2 0 0 4 5 6 9 13 7 10 2 2 2 2 4 5 6 6 6 5 9 12 11 11 10 8 8 8 9 3 5 2 5 7 2 3 7
19 19 20 20 21 22 23 23 26 27 27 16 3 4 3 4 2 1 1 2 3 6 6 8 9 8 6 4 3 6 6 6 3 3 4 4 6 3 3 5 6 5 5 3 3 4 3 4 4 5 3 4 4 3 5 3 7 6 2 3 3 1 0 2 3 5 5 6 6 6 7 10 10 10 9 8 7 7 7 8 8 6 3 7 7 7 6
18 19 20 19 20 21 22 23 25 27 27 19 2 6 4 2 2 1 5 3 3 5 5 10 9 10 6 3 6 5 7 6 6 4 1 3 3 3 2 3 5 6 5 3 2 1 3 4 3 1 4 4 3 3 3 2 5 3 2 2 0 2 1 1 5 5 7 7 8 8 9 10 11 10 8 9 9 9 8 9 9 9 7 8 6 5 5
18 19 20 19 19 19 20 21 24 26 26 12 8 7 3 5 3 6 5 1 2 4 3 3 8 8 5 3 4 1 4 7 5 4 4 2 3 3 4 4 5 5 6 4 2 1 2 0 1 2 1 6 1 1 2 2 4 1 1 0 1 3 2 8 4 5 5 6 8 8 10 11 12 10 5 7 8 9 9 9 9 10 6 2 4 4 3
17 18 19 19 17 18 18 19 22 25 21 7 6 2 4 1 1 1 2 6 5 4 3 4 6 4 5 5 3 3 6 2 2 3 3 3 2 2 4 3 4 2 4 4 2 1 2 3 3 3 1 1 3 1 3 2 2 3 2 0 0 1 2 2 1 4 6 3 7 11 13 13 11 5 2 5 6 8 6 6 3 6 8 8 5 3 2
16 17 18 17 16 17 17 17 20 20 16 5 3 6 3 0 1 0 1 3 4 3 2 4 5 5 2 2 2 3 4 4 5 2 4 4 3 3 3 1 5 2 2 1 3 4 2 2 4 4 2 2 3 3 3 1 2 2 2 1 1 2 2 1 1 2 4 2 5 10 11 11 11 4 2 4 8 10 10 8 7 6 3 1 3 2 2
16 16 17 15 16 16 16 16 17 17 11 7 5 3 5 5 4 5 4 5 5 4 4 6 5 3 1 7 5 7 4 4 1 2 1 0 2 1 4 1 2 1 1 3 2 2 0 1 1 1 3 3 3 3 4 5 3 1 1 1 1 2 2 1 1 1 3 5 6 5 6 6 9 2 7 4 5 4 6 5 7 9 7 2 0 1 2
14 15 16 14 15 15 15 15 16 17 11 3 2 2 3 2 1 2 4 6 2 5 8 5 3 3 7 5 5 4 5 6 4 2 0 1 3 2 3 2 3 2 3 1 3 1 1 0 5 4 4 5 4 3 3 4 4 2 0 1 1 2 1 2 3 1 2 2 5 5 4 10 5 4 7 9 6 4 4 9 10 11 12 10 7 9 9
13 14 15 15 14 14 14 14 15 16 15 7 4 3 4 3 2 1 3 4 3 3 5 2 3 4 3 6 5 6 6 5 8 5 1 6 3 3 3 4 4 1 1 3 4 6 4 3 2 3 5 5 2 6 8 7 6 6 4 1 1 0 2 1 0 2 0 3 1 0 9 5 8 11 7 9 3 7 1 4 8 9 9 10 9 8 8
12 13 14 14 14 14 14 14 14 15 16 10 6 3 3 3 4 4 2 3 1 1 2 5 6 5 4 3 3 3 4 8 4 7 8 6 4 7 6 5 1 1 4 3 4 3 3 4 2 5 6 5 3 2 2 3 3 6 6 7 3 3 2 2 2 1 3 4 5 8 7 15 13 6 3 4 2 5 6 4 1 6 7 8 7 8 10
11 12 13 13 13 13 13 13 13 14 15 13 3 3 4 3 2 1 0 2 1 3 1 3 0 0 2 2 1 3 3 3 7 6 2 2 3 2 1 2 2 5 4 5 2 3 2 1 2 2 4 3 2 2 2 1 3 3 4 3 4 1 2 3 3 2 5 2 3 4 3 5 4 3 5 3 5 5 5 3 1 5 9 8 8 8 9
10 11 12 12 12 12 12 12 12 13 14 13 5 4 5 3 1 2 1 1 1 3 1 4 5 2 0 1 1 5 1 1 2 1 4 3 1 4 4 4 4 5 4 2 1 1 1 2 1 1 0 0 1 1 2 2 4 3 3 4 6 3 2 3 7 2 3 2 3 4 4 7 2 5 7 11 9 9 8 1 1 5 10 9 7 6 6
9 10 11 12 12 12 12 12 12 12 12 12 5 3 2 3 3 2 2 2 2 3 2 3 2 2 3 1 4 2 1 1 0 2 3 4 3 3 4 2 3 4 2 2 2 1 1 1 1 1 2 1 0 1 2 1 4 6 6 2 6 5 2 2 2 3 4 5 5 8 4 4 3 7 8 9 10 9 2 5 2 6 11 10 9 5 5
9 9 10 11 11 12 12 11 13 12 12 11 5 1 4 4 3 1 3 2 2 3 1 4 5 1 2 1 1 2 1 1 2 1 1 3 0 0 2 2 4 4 3 2 0 2 1 1 1 1 1 1 1 2 1 1 1 2 3 5 4 3 2 1 4 3 6 8 5 3 5 2 5 8 11 9 8 1 2 6 2 9 10 11 9 5 4
9 9 9 10 10 11 11 11 11 13 13 13 8 1 2 2 4 3 3 2 2 2 6 6 1 0 2 2 3 2 2 4 4 2 1 3 1 2 1 1 0 1 4 2 2 1 1 0 0 2 1 1 1 1 0 1 2 0 1 2 3 2 1 1 1 1 4 4 8 8 4 1 3 7 8 6 3 3 5 1 3 6 8 8 6 5 4
9 8 9 9 10 10 11 10 10 11 11 10 6 0 7 6 3 3 4 2 0 3 7 4 1 2 3 1 4 2 5 3 2 2 2 1 2 2 4 1 2 1 1 1 0 1 2 2 2 0 0 1 1 2 0 3 1 1 1 2 2 2 0 3 1 1 1 1 4 3 7 1 6 9 4 3 1 3 2 6 7 4 5 6 5 4 4
8 8 8 9 9 10 10 10 9 9 10 10 5 2 5 5 3 2 4 3 0 2 6 3 1 3 3 5 6 5 3 6 3 1 4 3 3 3 0 2 2 1 1 1 2 1 2 1 1 1 2 3 1 1 2 0 3 3 3 3 4 2 1 1 2 1 2 3 5 4 0 2 3 3 1 3 2 5 6 4 8 5 4 3 4 4 4
9 8 9 9 9 9 9 9 8 7 9 10 7 2 0 3 4 4 3 1 1 4 6 7 4 9 10 10 10 10 9 9 7 5 4 1 1 3 3 3 2 2 1 2 1 1 1 0 1 0 1 1 1 3 2 1 2 1 1 2 2 5 3 3 3 2 2 3 2 1 1 2 2 1 3 7 9 6 3 3 5 7 5 4 4 4 5
8 8 8 8 8 9 9 9 8 7 7 8 5 2 2 4 5 4 3 2 3 3 4 6 5 6 7 10 12 12 12 10 6 3 5 4 1 0 3 3 2 2 1 2 4 3 2 3 4 3 0 2 5 1 1 4 2 1 2 4 3 2 2 2 1 4 3 8 11 8 3 4 6 5 4 4 6 6 5 6 8 7 7 6 7 6 5
8 8 8 8 8 8 9 9 8 7 6 6 4 0 2 3 5 4 4 1 0 6 5 2 1 3 2 6 8 4 7 6 8 6 5 7 4 1 1 1 1 1 0 2 4 3 2 2 2 2 1 3 3 2 2 3 5 3 1 2 1 2 1 2 3 1 4 4 1 1 3 5 6 7 5 5 3 5 6 8 8 10 10 10 9 8 6
8 8 8 8 8 8 8 9 9 7 6 6 5 3 3 4 2 0 2 2 3 2 1 6 5 10 5 7 8 5 1 1 3 8 8 7 7 7 6 5 6 5 4 5 2 5 1 2 0 1 2 3 5 4 2 2 4 3 2 5 0 2 2 0 4 2 3 7 3 3 3 6 7 2 2 8 10 10 8 8 8 10 11 10 9 8 8
9 9 8 8 8 8 8 8 9 8 6 6 6 2 1 4 2 4 2 2 2 2 3 3 7 7 8 12 12 9 10 9 6 9 10 10 9 9 6 3 2 2 4 3 5 5 3 1 1 1 3 3 2 2 3 7 2 2 5 7 7 4 3 3 2 2 5 6 7 3 7 5 2 1 7 6 7 9 12 13 12 12 12 12 9 7 8
9 9 9 8 8 8 8 9 8 8 7 5 3 2 3 5 4 3 1 0 2 2 0 5 6 6 6 13 14 10 9 5 4 8 8 9 10 6 4 5 6 4 6 3 1 3 1 1 3 4 4 4 5 3 3 1 3 3 3 4 2 3 5 2 1 3 5 6 5 1 4 6 4 6 7 8 8 10 11 12 12 12 12 11 11 11 8
8 8 9 8 8 8 8 9 8 8 6 6 4 5 4 5 5 4 4 3 2 3 3 4 6 10 9 11 7 5 8 7 4 9 11 11 10 9 8 8 6 5 4 6 2 2 3 4 6 4 2 1 2 3 1 0 1 1 4 6 6 7 6 6 5 5 6 6 4 3 4 6 8 9 7 8 8 10 11 12 12 12 11 10 11 13 11
8 8 8 8 8 8 8 8 8 8 6 3 4 6 7 9 9 7 7 3 3 2 4 6 7 4 3 8 12 11 10 6 6 7 10 11 12 11 10 8 8 6 5 4 4 4 4 5 3 4 3 4 3 2 3 3 3 5 8 6 8 7 7 10 10 6 6 4 3 3 3 5 7 7 8 8 7 7 10 11 12 12 12 11 11 10 11
8 8 8 7 7 7 8 7 8 7 4 2 2 1 3 3 2 5 6 5 3 1 2 4 6 3 4 4 8 8 8 9 6 4 7 9 9 10 8 8 6 8 5 6 6 5 4 2 2 3 3 6 3 2 2 3 3 7 5 7 11 5 6 8 7 8 5 4 5 6 5 7 7 8 8 8 7 7 9 11 11 12 11 11 11 11 9
8 8 8 7 7 8 8 7 7 6 2 3 0 2 0 0 0 1 1 3 4 2 2 2 7 6 6 4 5 10 11 6 5 4 4 5 1 3 4 6 3 7 6 3 3 5 3 3 3 2 3 8 5 4 4 3 4 2 4 7 9 8 8 9 7 8 5 3 4 3 2 6 7 6 9 8 7 7 9 10 12 14 15 14 13 12 11
8 8 7 7 7 7 8 7 6 4 3 5 5 4 1 1 1 4 6 5 0 2 2 4 5 1 3 3 3 2 4 6 4 3 1 3 2 1 6 3 0 2 1 3 1 1 3 3 3 3 4 5 4 2 2 4 8 8 4 8 8 8 8 6 6 7 5 4 3 1 5 7 7 7 6 5 9 9 9 11 11 12 14 12 11 11 12
7 7 7 7 7 8 8 8 7 5 5 6 12 18 20 20 20 16 4 3 1 2 1 2 4 3 3 5 6 8 5 3 1 0 1 3 1 1 4 0 2 1 3 2 2 3 2 3 2 4 5 5 4 3 5 9 10 5 7 8 8 8 8 8 6 5 5 5 7 7 6 5 4 5 6 7 8 10 10 11 11 11 12 13 13 13 12
7 6 7 8 8 8 7 7 7 7 6 5 6 6 7 12 13 16 5 1 1 2 1 2 3 3 5 3 4 7 2 1 1 3 4 5 3 4 0 1 0 2 2 6 2 1 2 2 3 2 2 3 2 1 6 7 5 6 6 6 8 7 7 6 4 5 5 6 6 8 8 7 5 4 5 6 9 9 10 10 11 13 13 13 12 11 11
6 6 7 7 7 6 7 7 4 4 4 4 5 7 6 8 12 12 11 5 3 1 2 2 1 4 4 3 3 6 2 3 1 2 1 1 1 1 1 1 1 2 4 2 1 5 4 4 5 3 5 3 3 5 6 4 4 5 4 5 5 6 4 3 3 5 5 5 5 6 7 6 5 5 6 7 8 8 9 10 10 11 12 11 11 11 11
6 6 7 6 6 4 2 3 4 4 3 4 6 3 1 2 6 6 9 5 1 1 1 1 1 4 2 5 3 3 1 2 1 1 1 1 2 1 2 1 2 4 1 3 4 3 5 3 4 4 4 5 7 8 6 4 7 7 6 6 6 6 4 6 5 5 5 5 6 6 6 5 6 6 5 6 8 8 9 10 9 10 11 12 11 10 9
5 5 4 3 1 2 3 4 3 5 6 4 3 5 4 7 5 5 4 1 1 1 2 2 4 6 4 5 2 2 3 4 0 0 0 1 3 1 1 1 4 1 1 2 2 4 1 2 3 4 5 7 4 2 3 7 9 9 6 5 5 5 5 4 4 4 2 4 6 6 5 6 6 5 4 6 8 9 9 9 9 11 13 14 13 11 10
3 2 2 1 2 2 2 3 4 6 6 3 4 2 1 2 1 1 2 1 1 2 3 2 7 5 0 2 6 3 1 3 1 0 2 2 1 2 1 1 3 2 4 3 3 1 3 2 4 4 4 3 3 3 7 7 5 6 6 6 6 6 6 5 4 4 2 1 2 4 5 4 5 4 4 6 7 9 9 8 8 9 11 12 12 11 11
3 2 2 3 1 2 1 2 1 10 7 1 1 0 1 0 1 1 3 2 1 4 3 4 5 2 3 4 7 2 3 2 1 2 2 2 1 2 1 0 1 1 2 2 2 2 2 2 2 1 5 3 3 2 2 4 5 5 6 5 7 6 5 4 5 6 6 6 6 5 5 6 5 5 4 4 5 7 7 8 8 10 11 12 11 11 10
2 1 2 2 3 3 0 3 3 2 0 0 0 1 1 2 2 1 2 1 2 1 3 5 4 5 7 8 6 5 2 3 4 4 5 2 1 1 0 1 0 1 3 2 1 1 1 2 1 1 4 3 4 3 5 6 6 4 5 4 5 5 5 5 5 4 5 4 4 5 5 4 4 4 4 4 5 6 8 8 7 9 11 12 13 10 10
2 2 2 2 2 3 3 1 1 0 0 1 0 1 0 1 2 2 1 2 2 2 2 3 2 2 4 5 4 6 2 1 2 0 1 4 1 0 1 2 1 2 2 2 0 0 1 1 1 3 5 3 5 5 6 6 6 5 5 4 5 5 5 5 3 5 5 3 2 4 5 5 4 4 4 4 4 5 7 8 9 9 12 12 13 12 11
1 1 2 4 5 4 3 1 2 0 1 1 0 2 1 2 1 1 0 1 2 1 1 1 4 3 5 5 5 3 2 2 1 1 0 2 0 1 2 1 1 2 2 0 1 1 0 2 2 4 4 5 7 8 9 8 7 6 5 5 5 5 4 4 5 4 5 4 3 4 5 5 4 3 3 3 3 4 6 8 9 10 11 12 11 10 11
11 7 3 2 2 1 1 0 1 1 1 0 1 2 1 0 0 1 2 1 0 1 3 1 4 1 4 1 1 1 2 1 1 2 0 2 0 1 1 1 0 2 2 1 1 1 2 2 3 7 6 4 7 10 9 9 7 6 6 5 5 4 4 3 5 6 4 4 3 4 6 5 5 4 3 2 3 4 5 6 9 9 9 10 10 9 10
4 2 0 1 0 2 1 1 1 1 1 0 1 1 1 1 3 1 2 3 1 3 1 2 5 3 7 2 2 1 0 1 1 1 1 1 0 1 0 1 2 1 1 1 1 2 3 3 6 6 3 3 4 8 8 7 6 5 4 5 4 4 4 3 4 4 3 2 2 1 3 4 4 4 3 2 2 4 5 7 8 10 10 10 10 10 10
1 0 0 1 1 2 2 2 0 2 2 3 1 0 0 3 5 3 5 3 1 5 3 3 6 3 7 4 1 0 0 1 0 1 1 0 1 1 1 3 1 1 0 2 1 2 1 3 6 3 1 3 4 2 4 8 8 8 6 4 4 4 5 4 4 4 4 4 3 2 3 4 4 4 3 3 2 3 5 7 7 9 9 9 9 9 10
1 1 1 1 3 2 1 1 0 1 1 1 3 4 6 7 4 7 5 1 4 6 6 6 4 3 6 3 2 1 0 1 0 1 0 0 0 2 1 0 0 1 1 1 2 2 2 3 5 7 6 4 4 1 3 6 6 5 6 5 5 4 5 6 4 3 5 4 2 3 3 3 2 3 3 3 2 2 3 5 6 7 8 8 9 10 9
1 1 0 1 1 3 1 0 2 2 3 3 1 7 10 9 7 7 4 2 6 7 6 3 3 3 3 3 0 1 0 0 0 0 1 0 1 2 1 2 1 1 2 2 2 3 5 5 2 2 7 6 1 5 7 5 6 7 8 5 4 6 6 4 5 7 6 4 4 4 3 2 1 1 3 3 1 2 3 4 6 7 7 8 8 8 9
1 2 1 0 3 1 1 3 2 1 1 3 6 6 7 3 3 6 6 4 5 2 3 3 4 2 2 2 1 1 1 1 1 1 1 1 0 1 1 1 1 0 2 3 2 3 5 7 6 5 6 5 3 4 6 7 7 8 7 5 7 7 5 5 6 5 5 5 4 4 2 1 0 1 3 3 2 1 3 4 5 6 7 7 8 8 9
1 0 1 2 2 1 1 1 1 2 4 4 4 2 2 2 6 7 7 2 3 5 3 1 2 0 2 2 1 0 1 0 1 1 0 2 1 1 2 2 2 2 1 3 3 4 5 7 9 7 5 7 8 5 5 7 8 8 7 7 8 8 5 7 7 5 4 5 4 4 2 1 1 2 2 4 3 0 1 3 5 5 6 7 8 8 9
1 1 1 0 3 5 5 1 5 6 7 3 2 4 3 3 5 7 3 2 2 1 3 1 1 2 1 1 2 2 0 1 0 1 1 0 1 1 1 2 2 2 4 2 4 6 6 6 6 8 5 4 5 1 4 7 6 7 6 6 7 6 8 9 6 5 5 4 4 3 2 2 2 3 2 3 4 2 1 3 4 5 6 6 7 8 9
1 1 3 4 5 5 1 3 4 4 6 6 4 4 1 3 3 5 2 1 2 3 2 0 1 1 1 2 1 1 1 0 1 1 0 1 1 0 1 3 4 3 6 5 4 7 8 7 5 5 6 6 6 5 4 6 9 7 6 8 7 8 8 8 7 6 5 4 4 5 3 2 1 2 2 4 6 3 2 2 3 4 4 5 6 7 8
0 1 3 4 5 7 6 3 0 5 7 6 3 3 1 3 3 5 1 2 2 3 2 2 1 1 1 0 1 1 1 2 1 1 2 1 1 2 3 5 7 7 7 8 7 7 7 7 6 6 5 5 6 3 1 1 3 5 7 8 10 10 8 7 7 6 5 4 4 3 2 0 1 2 2 5 5 4 3 2 2 3 3 4 6 7 8
Wind_Direction
351 350 345 341 342 343 343 346 350 356 353 10 352 333 15 31 265 275 299 301 106 67 48 12 24 75 93 78 47 40 53 53 36 38 16 45 358 46 52 32 58 37 46 25 41 34 76 23 56 73 80 57 22 359 7 9 12 24 13 357 349 349 46 344 312 297 266 237 183 111 42 33 41 19 5 4 358 349 307 249 260 273 322 38 315 200 263
351 349 345 342 343 343 343 346 350 356 13 354 309 24 52 337 290 319 304 345 71 64 48 20 15 57 76 74 78 55 63 46 44 41 35 43 11 50 39 41 34 63 35 58 44 15 96 38 54 52 21 71 4 18 0 357 34 12 335 47 313 38 325 94 340 339 323 37 3 2 12 48 62 327 339 337 332 337 319 272 322 96 54 288 160 208 356
350 350 346 345 345 344 344 347 348 355 358 357 211 42 281 266 260 237 301 351 40 73 325 91 62 31 55 88 82 53 41 43 64 57 49 30 38 15 43 40 18 38 19 56 48 43 72 138 49 94 54 72 14 13 2 350 3 2 8 28 359 100 56 77 89 278 295 304 58 356 338 336 326 327 328 330 357 343 350 4 336 45 306 32 263 333 273
352 351 348 347 345 345 348 348 349 350 358 359 138 223 57 22 39 318 345 359 17 44 23 81 79 60 56 53 19 88 97 46 46 62 57 29 65 51 64 21 34 42 37 43 37 26 30 78 314 53 53 359 1 348 348 349 329 8 18 18 15 148 122 117 146 171 232 249 260 256 279 299 305 315 326 330 345 325 325 309 59 354 300 320 218 118 318
353 353 351 350 346 347 349 352 352 350 351 9 140 34 118 185 61 359 346 330 25 29 14 39 39 39 5 84 336 43 52 54 51 25 102 341 60 70 44 41 34 18 43 34 36 10 20 22 60 25 94 249 215 335 3 339 16 27 24 11 359 40 18 246 160 206 233 252 256 274 302 293 295 307 308 314 323 325 319 340 291 301 358 320 222 4 355
354 354 353 352 348 348 351 355 357 354 346 353 139 40 23 58 297 77 217 135 339 34 15 46 49 35 43 60 346 46 45 42 52 32 61 47 31 77 350 55 57 54 65 54 47 354 19 24 9 338 6 360 349 18 339 36 2 16 20 21 79 114 103 295 338 302 295 295 303 317 300 286 285 288 293 304 310 312 317 303 302 317 284 253 307 333 343
354 356 356 353 350 351 354 359 2 358 347 345 73 72 345 81 318 325 333 68 342 59 64 63 63 48 33 69 29 46 40 43 39 26 30 35 8 66 90 43 47 52 57 76 50 23 46 346 331 21 341 344 347 9 339 329 359 39 13 29 93 72 252 269 18 329 324 324 325 321 305 300 294 277 273 275 286 287 288 294 294 289 267 262 281 6 320
354 355 357 354 352 353 356 3 6 1 349 337 65 49 62 23 22 332 350 52 334 30 30 47 62 57 19 70 335 59 48 38 10 37 36 24 340 8 88 87 43 56 56 53 58 51 124 110 316 280 9 332 15 284 194 252 327 355 334 51 331 98 296 356 355 350 316 318 316 327 334 335 317 313 309 288 276 274 274 279 282 280 286 288 337 24 338
354 355 356 356 353 355 358 8 12 6 354 38 32 61 32 268 148 196 1 5 356 35 31 47 73 63 3 61 347 52 42 71 35 67 26 75 23 51 89 151 119 60 74 54 357 281 29 296 255 270 217 311 220 106 289 159 278 333 313 17 280 94 251 52 64 5 313 335 345 331 332 320 303 293 310 283 262 273 266 256 258 284 276 288 317 62 283
353 354 356 354 355 355 0 10 18 15 359 58 357 34 306 35 235 258 126 68 349 60 5 23 48 41 349 5 339 48 58 63 49 13 320 3 33 92 79 158 99 52 49 257 234 242 210 233 287 289 235 235 256 195 226 257 291 282 289 247 126 186 132 38 356 337 263 310 353 338 327 337 313 295 157 355 329 286 276 275 284 299 316 335 277 215 255
352 354 355 354 355 356 1 10 21 26 24 36 7 360 349 31 330 351 41 83 343 21 69 24 61 32 75 26 29 24 55 60 26 96 290 357 307 33 117 108 107 137 211 235 226 204 229 244 268 336 328 301 268 273 275 299 311 270 276 1 270 128 115 217 162 140 264 352 340 348 354 293 244 228 327 12 324 344 5 24 22 2 16 1 10 130 340
353 354 354 355 355 355 1 9 17 25 41 12 232 279 317 314 51 73 69 76 23 358 61 59 45 31 42 23 32 21 359 344 323 182 113 285 288 323 81 113 84 53 264 289 28 42 207 37 16 4 337 327 296 279 74 41 329 331 284 162 230 255 151 200 168 129 296 345 12 356 271 249 271 324 333 334 296 25 60 55 24 13 7 5 22 22 16
352 353 353 357 357 356 359 9 17 21 20 10 36 12 308 344 90 71 101 109 58 3 65 0 355 51 38 34 9 358 0 22 31 40 68 9 306 46 40 58 58 329 298 99 54 46 45 9 346 320 307 319 2 70 42 0 339 350 349 333 143 209 196 216 300 162 119 46 71 314 240 250 317 311 326 348 344 29 14 51 29 3 9 351 356 9 359
351 352 352 356 359 355 357 8 15 18 17 18 12 324 304 4 46 28 48 91 338 283 146 70 19 28 4 8 356 338 3 10 3 38 27 352 14 35 27 36 79 309 38 86 64 74 22 32 6 11 329 7 4 12 319 335 21 350 337 337 311 215 152 137 276 156 190 185 166 233 313 316 299 312 30 26 28 336 354 317 324 351 349 355 342 357 2
348 350 353 356 358 354 356 6 14 16 16 9 357 319 343 359 78 119 294 91 117 299 39 108 292 1 22 328 329 48 19 340 18 355 353 339 27 19 18 335 21 48 42 68 19 38 128 96 32 9 330 43 31 277 318 356 302 302 325 347 5 348 187 223 163 239 161 169 257 308 329 271 289 89 308 353 341 310 311 282 253 355 342 340 360 7 4
345 347 349 354 355 355 358 5 14 18 18 9 33 359 301 311 52 100 108 133 102 56 323 195 185 138 132 279 51 100 2 30 340 323 355 338 333 327 357 4 26 52 37 72 90 104 92 97 192 84 233 216 240 26 303 330 318 301 344 27 4 20 44 154 168 215 108 156 201 215 223 242 94 324 327 322 324 331 308 357 169 358 334 330 335 359 6
341 343 346 350 353 353 358 5 14 19 21 25 355 327 281 327 46 44 65 18 79 202 264 7 323 124 84 356 12 26 116 110 199 58 333 338 319 352 310 358 360 45 66 70 15 63 38 59 117 153 270 164 65 217 303 48 327 319 325 0 15 17 23 47 144 205 199 184 206 236 218 262 320 327 330 322 315 321 20 299 240 335 323 318 330 341 2
335 336 341 347 348 351 354 2 13 17 17 10 15 306 287 307 349 87 51 91 51 304 256 41 16 5 131 188 171 237 111 30 54 113 153 242 308 318 300 25 4 336 63 104 71 65 71 104 136 154 223 264 134 72 240 182 336 262 327 332 328 344 342 84 201 212 229 223 255 276 287 338 6 336 323 313 304 358 252 230 4 319 311 310 309 333 343
333 333 337 342 345 346 351 360 11 18 18 13 356 37 283 295 342 67 116 48 69 257 273 334 269 89 299 290 200 191 185 175 163 111 281 1 253 214 109 176 104 310 0 123 69 127 119 279 84 125 157 296 30 207 222 37 240 284 25 14 340 331 341 285 82 191 209 218 235 241 260 217 306 326 319 299 318 255 218 220 303 270 299 303 289 322 333
326 329 328 334 339 342 346 354 6 16 21 24 41 139 266 298 287 107 97 90 87 248 288 272 29 336 319 345 315 352 337 19 128 136 159 196 262 42 30 12 323 92 356 58 70 188 110 196 209 134 38 215 247 177 81 252 236 197 196 182 188 220 45 254 239 232 26 236 238 244 245 45 11 330 344 19 108 230 9 308 298 294 300 318 321 313 302
319 320 323 327 332 336 338 347 358 13 20 21 39 36 345 319 347 46 109 131 123 336 302 281 344 287 310 274 249 245 246 236 223 190 222 179 207 98 171 208 224 132 215 137 154 255 155 206 212 172 200 142 227 67 209 225 314 277 146 189 208 177 131 266 280 148 249 207 214 226 109 283 318 38 232 296 254 280 301 305 302 313 318 327 326 321 311
312 313 317 320 323 327 330 336 348 2 17 17 16 93 327 287 343 358 339 124 153 195 228 268 268 278 272 263 255 247 237 240 239 157 143 187 277 158 194 150 175 155 210 129 56 16 344 212 43 73 204 269 54 197 178 60 274 267 214 154 332 199 192 174 194 212 197 227 263 297 269 260 281 278 268 275 281 288 277 307 298 309 314 310 308 308 318
309 307 306 312 317 319 320 327 334 350 21 22 29 82 217 316 313 320 329 351 300 286 270 277 287 274 270 261 247 235 234 223 212 154 130 121 306 8 149 136 259 203 153 117 172 164 197 131 221 169 88 195 180 225 300 173 224 213 200 221 184 202 194 128 99 259 266 267 256 281 321 335 320 318 295 309 327 327 339 332 321 307 303 307 303 303 297
305 304 301 304 309 311 313 317 323 335 2 19 45 109 299 269 274 344 354 354 346 311 309 280 11 309 260 296 314 290 224 221 193 188 161 131 148 265 338 223 191 66 85 206 175 137 191 127 204 129 181 236 98 154 178 263 228 199 127 311 261 188 175 159 199 289 39 294 42 134 290 302 306 298 305 326 317 316 323 321 314 309 308 306 301 297 301
300 300 301 299 302 306 306 310 315 321 345 350 2 287 262 288 248 94 17 358 343 69 255 309 280 242 273 305 298 283 261 329 189 150 153 151 156 164 188 209 175 156 203 194 103 74 62 125 171 92 169 255 126 247 219 176 281 141 192 252 151 307 182 164 220 179 184 242 259 280 293 285 284 250 8 337 327 319 313 303 295 295 295 290 292 305 306
295 295 297 300 298 300 304 303 307 311 319 340 339 334 307 256 316 353 283 234 201 200 263 278 274 314 348 338 313 296 295 290 215 169 169 175 176 177 175 142 93 83 109 125 115 142 152 144 138 164 137 277 117 177 214 197 182 172 178 230 192 157 117 243 170 223 264 288 281 295 320 313 281 7 336 323 309 309 306 306 304 301 298 296 294 295 296
292 292 293 296 296 296 299 302 302 303 308 304 314 278 267 280 265 240 223 285 22 354 188 254 275 296 341 306 288 295 285 271 204 185 182 180 174 177 160 158 144 136 127 121 101 133 103 139 141 222 176 230 160 205 160 219 168 174 228 255 175 126 220 174 80 296 272 243 255 40 334 294 281 295 296 309 308 300 295 295 295 297 296 298 300 298 295
292 292 290 291 294 294 294 297 299 299 307 309 292 271 244 242 246 216 218 211 169 194 245 282 302 293 306 277 270 281 289 283 223 190 192 189 181 182 185 176 160 146 151 134 152 174 164 167 228 216 185 193 118 273 164 151 91 261 233 231 178 185 199 153 189 180 243 231 206 183 217 258 261 275 292 294 302 300 297 297 298 297 292 292 295 300 301
292 290 289 288 289 291 291 292 296 296 300 313 286 279 268 237 231 224 227 217 184 257 260 275 276 297 284 291 303 296 291 284 258 209 193 194 189 187 187 175 177 179 161 167 161 159 166 209 179 167 194 201 133 216 119 204 203 222 228 201 184 217 173 180 200 199 246 221 220 182 187 237 273 283 291 292 293 298 300 298 295 292 293 293 288 287 291
292 289 289 289 287 287 289 288 288 290 300 305 303 329 336 335 156 196 206 210 200 140 287 316 312 268 293 302 287 284 289 290 294 256 200 195 187 187 187 176 194 189 176 181 168 201 197 181 211 213 196 143 180 185 178 197 207 245 228 195 200 193 187 199 181 174 218 204 190 193 216 249 263 273 275 278 282 294 300 298 297 293 291 292 287 283 275
291 290 287 286 284 284 285 286 279 275 272 271 41 55 51 336 308 93 99 242 188 143 226 211 253 302 301 239 250 278 282 274 257 264 233 207 185 189 211 191 197 170 196 201 172 211 150 214 167 233 155 187 184 187 207 200 256 269 220 188 195 194 196 207 199 203 199 181 191 196 227 252 266 283 281 270 277 292 294 297 298 299 296 294 292 293 292
292 289 288 283 284 283 284 283 284 272 235 225 194 171 164 175 263 320 340 341 259 144 247 299 295 254 272 289 264 262 288 272 255 250 248 126 221 91 52 35 313 292 241 199 210 83 232 198 177 191 165 192 190 251 209 217 240 249 199 193 199 199 199 201 204 216 214 196 152 251 269 264 249 245 267 283 292 292 292 294 296 292 295 293 288 280 275
292 289 284 285 284 285 281 280 277 252 240 267 290 293 281 269 266 267 278 287 233 226 181 246 244 298 282 265 291 287 258 271 353 34 218 352 114 65 119 2 17 34 319 12 251 229 218 152 122 223 223 150 188 205 218 228 231 218 189 188 192 193 198 207 201 200 198 186 169 205 230 226 233 233 255 279 286 290 294 298 298 303 300 298 292 288 285
293 285 281 284 284 280 275 266 247 256 264 276 283 243 245 232 232 240 206 208 270 233 147 215 284 255 267 312 311 288 350 195 307 10 37 330 343 355 32 115 56 173 230 170 218 220 281 182 201 221 29 244 204 194 239 237 210 190 182 178 182 185 191 187 181 191 192 194 201 214 232 248 263 272 280 282 285 286 292 295 296 306 308 302 296 297 299
289 283 287 289 288 286 275 247 226 216 239 246 253 252 252 230 192 198 176 164 152 241 202 241 226 286 311 311 293 279 348 63 356 320 99 282 72 131 343 244 292 185 265 94 190 204 215 215 140 154 226 127 166 228 237 226 213 178 166 162 176 149 132 136 215 203 205 209 207 224 237 250 264 272 274 283 286 293 299 297 299 306 308 304 299 296 291
295 297 300 292 286 272 255 219 230 222 243 233 229 290 266 44 154 169 166 187 134 166 233 259 223 244 259 279 285 294 52 68 258 253 157 225 333 136 159 177 243 234 192 173 227 177 194 156 98 228 169 186 219 206 234 208 190 191 178 177 183 152 172 175 184 201 213 202 208 226 239 241 242 254 270 282 290 294 301 300 304 304 300 300 298 290 285
296 309 317 317 254 210 231 233 187 200 218 222 178 142 110 99 70 91 85 207 228 84 256 310 279 248 210 265 274 302 16 304 271 1 2 113 241 234 123 127 228 276 322 243 226 221 221 119 212 205 196 212 235 174 217 216 185 174 181 174 161 139 152 178 177 167 185 200 213 227 232 239 248 249 262 286 292 296 299 305 308 308 307 302 304 303 294
343 294 229 210 208 272 246 217 210 213 161 96 147 77 343 10 64 46 94 156 216 171 218 167 249 274 186 249 260 255 288 268 83 176 312 220 231 266 157 220 228 211 245 248 241 142 122 165 218 228 259 235 236 234 231 201 178 155 152 149 147 163 173 175 159 162 208 282 262 251 250 247 249 248 256 277 290 301 300 292 296 298 300 302 303 298 297
281 230 219 222 241 247 255 290 32 116 107 0 70 10 272 5 134 208 184 194 184 211 180 203 249 167 171 244 257 227 172 231 330 152 211 246 144 287 87 220 296 127 277 294 273 133 262 239 254 253 267 215 192 208 197 161 149 150 152 154 158 173 164 176 176 177 189 199 200 195 196 218 228 247 250 266 280 286 293 301 304 306 304 303 299 305 308
199 200 207 184 203 242 306 324 345 112 48 89 249 124 254 164 113 247 143 142 243 202 158 235 212 204 186 208 244 278 152 141 214 231 223 278 124 201 252 210 234 213 253 213 246 87 228 278 226 222 270 198 192 160 183 165 152 163 163 177 171 168 161 176 205 206 186 201 184 201 208 203 197 209 233 244 276 297 309 307 307 306 305 309 316 320 317
203 226 248 258 306 325 323 7 3 49 114 297 239 239 132 289 217 206 189 232 232 226 173 219 188 186 209 224 203 241 276 165 265 127 155 219 263 138 178 201 162 223 252 259 211 124 241 272 257 218 248 211 168 175 187 158 160 171 190 177 155 160 162 177 155 147 145 159 169 182 201 198 198 209 230 260 270 283 300 309 311 308 313 320 323 324 325
16 285 306 307 268 273 293 234 167 223 255 208 328 278 214 214 236 350 88 183 265 323 347 309 300 279 264 203 219 165 279 204 139 176 184 275 298 187 253 191 82 233 253 335 102 184 162 263 264 269 252 195 184 173 171 168 173 169 182 154 135 139 143 129 125 166 158 176 198 175 199 190 195 219 240 250 267 283 301 311 314 318 320 318 322 331 332
306 273 175 268 287 229 176 25 245 143 138 281 52 321 307 343 271 266 265 219 291 119 234 204 242 234 271 211 312 160 196 183 94 305 123 259 53 223 236 286 228 250 240 176 257 190 206 231 255 251 244 206 173 165 171 169 169 166 171 160 154 156 144 151 149 170 186 164 169 169 187 190 196 219 223 261 286 290 301 308 320 319 318 324 327 333 331
249 205 101 223 63 288 92 318 232 58 331 168 127 228 266 272 279 348 299 276 273 277 240 5 302 352 298 295 233 230 9 353 82 182 245 265 104 254 56 263 227 244 38 46 323 253 228 225 224 244 240 183 156 157 159 157 152 151 146 163 155 148 153 149 140 151 174 177 162 193 149 184 202 212 214 238 291 301 300 310 316 321 329 334 337 343 346
41 58 350 22 322 267 57 309 306 133 213 260 178 209 79 267 280 286 253 249 199 243 243 218 253 220 256 275 333 290 164 206 67 129 251 164 299 257 149 256 261 168 212 275 234 257 294 283 311 319 192 137 76 69 153 152 161 156 165 171 196 183 164 152 181 175 160 165 183 167 140 184 184 203 208 231 267 296 304 306 314 330 331 337 343 353 356
117 169 97 73 303 301 121 250 81 298 305 66 57 5 298 265 237 267 260 224 250 277 274 259 239 227 273 241 195 227 235 101 71 241 145 74 82 281 279 220 332 335 314 348 6 304 261 289 331 324 332 53 79 325 249 177 157 148 145 180 207 182 166 168 185 142 148 170 179 99 93 96 134 161 191 205 234 281 295 301 317 327 327 344 357 1 2
359 326 129 134 164 267 131 171 248 204 159 114 137 256 248 259 257 250 258 230 255 255 267 257 243 210 235 288 8 356 16 81 239 279 69 42 242 259 51 68 0 299 354 356 344 304 303 309 317 358 300 286 226 166 204 199 161 162 177 186 172 171 178 164 132 137 161 149 116 109 110 105 75 128 155 178 255 283 312 326 319 329 341 354 359 6 15
210 253 99 230 239 219 189 251 139 202 233 181 228 232 241 235 301 288 263 232 242 267 293 324 333 334 324 278 117 203 236 24 27 309 155 231 306 353 345 312 249 177 134 196 235 242 267 280 274 228 226 268 288 218 211 190 178 182 181 179 174 173 171 136 135 146 138 125 123 128 135 141 162 108 149 162 185 318 335 326 330 334 347 0 13 19 24
223 88 156 210 219 274 272 232 132 333 277 246 239 261 275 259 247 256 272 264 266 264 229 168 242 69 290 268 214 101 347 287 89 262 18 32 70 284 303 283 312 303 252 182 255 261 251 268 280 275 232 212 233 249 245 210 189 189 185 177 176 173 151 139 145 142 127 117 124 130 154 158 85 48 83 125 133 178 319 338 336 348 354 10 20 25 29
114 337 310 245 340 305 268 17 43 336 289 286 316 270 248 257 283 281 257 268 245 304 357 28 44 100 252 59 333 351 7 303 189 351 45 10 274 295 32 300 248 222 279 305 301 285 279 275 283 288 270 230 236 221 275 276 229 197 190 166 163 145 140 141 136 131 121 126 132 145 129 77 42 28 33 127 143 128 30 6 356 355 6 14 25 30 36
231 159 229 190 189 232 61 301 265 255 279 276 263 274 254 264 243 267 264 286 338 22 40 250 245 83 7 17 31 17 282 279 35 345 139 259 302 327 213 243 263 276 284 272 262 282 292 300 293 283 259 241 229 227 256 272 255 221 171 153 142 130 134 128 125 119 117 122 125 119 114 120 48 0 19 101 126 130 91 45 21 6 11 19 28 37 42
126 245 254 249 223 232 208 221 190 231 240 250 263 253 189 251 258 260 268 57 48 57 321 300 76 28 53 352 235 209 291 27 307 18 14 309 52 313 284 270 290 302 301 301 305 304 303 299 294 285 266 223 215 193 323 41 315 265 164 134 132 134 130 126 123 125 128 133 132 136 146 143 47 30 65 96 124 138 116 103 47 32 28 29 33 40 48